TimeCST,TemperatureF,Dew PointF,Humidity,Sea Level PressureIn,VisibilityMPH,Wind Direction,Wind SpeedMPH,Gust SpeedMPH,PrecipitationIn,Events,Conditions,WindDirDegrees,DateUTC
12:53 AM,32.0,19.9,61,30.31,10.0,NNW,10.4,-,N/A,,Overcast,330,2013-03-02 06:53:00
1:53 AM,32.0,19.9,61,30.32,10.0,NW,8.1,-,N/A,,Overcast,310,2013-03-02 07:53:00
2:53 AM,32.0,21.0,64,30.30,10.0,NW,8.1,-,N/A,,Overcast,310,2013-03-02 08:53:00
3:53 AM,30.9,21.9,69,30.30,10.0,NW,10.4,-,N/A,,Overcast,310,2013-03-02 09:53:00
4:53 AM,30.2,21.2,69,30.30,10.0,NW,6.9,-,N/A,,Overcast,310,2013-03-02 10:53:00
5:07 AM,30.2,21.2,69,30.30,10.0,WNW,6.9,-,N/A,,Overcast,300,2013-03-02 11:07:00
5:53 AM,30.0,21.0,69,30.33,10.0,WNW,9.2,-,N/A,,Mostly Cloudy,300,2013-03-02 11:53:00
6:53 AM,28.0,21.0,75,30.35,10.0,WNW,9.2,-,N/A,,Clear,300,2013-03-02 12:53:00
7:53 AM,30.0,21.0,69,30.36,10.0,NW,8.1,-,N/A,,Clear,310,2013-03-02 13:53:00
8:53 AM,32.0,21.9,66,30.38,10.0,NW,6.9,-,N/A,,Clear,310,2013-03-02 14:53:00
9:53 AM,34.0,21.0,59,30.37,10.0,Variable,5.8,-,N/A,,Scattered Clouds,0,2013-03-02 15:53:00
10:53 AM,37.9,19.9,48,30.36,10.0,NW,12.7,-,N/A,,Scattered Clouds,320,2013-03-02 16:53:00
11:53 AM,39.0,19.9,46,30.35,10.0,NW,9.2,18.4,N/A,,Scattered Clouds,320,2013-03-02 17:53:00
12:53 PM,42.1,21.0,43,30.32,10.0,NNW,11.5,-,N/A,,Clear,330,2013-03-02 18:53:00
1:53 PM,44.1,21.0,40,30.29,10.0,North,9.2,-,N/A,,Clear,350,2013-03-02 19:53:00
2:53 PM,46.0,19.9,35,30.28,10.0,NNW,8.1,-,N/A,,Clear,330,2013-03-02 20:53:00
3:53 PM,46.9,18.0,32,30.27,10.0,NNW,12.7,-,N/A,,Clear,330,2013-03-02 21:53:00
4:53 PM,46.9,17.1,30,30.27,10.0,WNW,9.2,-,N/A,,Clear,300,2013-03-02 22:53:00
5:53 PM,45.0,17.1,33,30.27,10.0,NW,8.1,-,N/A,,Clear,320,2013-03-02 23:53:00
6:53 PM,41.0,19.4,42,30.27,10.0,WNW,8.1,-,N/A,,Clear,300,2013-03-03 00:53:00
7:53 PM,39.9,19.0,43,30.28,10.0,NW,6.9,-,N/A,,Clear,320,2013-03-03 01:53:00
8:53 PM,39.9,19.0,43,30.28,10.0,NNW,4.6,-,N/A,,Clear,340,2013-03-03 02:53:00
9:53 PM,36.0,21.9,57,30.28,10.0,Calm,Calm,-,N/A,,Clear,0,2013-03-03 03:53:00
10:53 PM,32.0,23.0,69,30.27,10.0,Calm,Calm,-,N/A,,Clear,0,2013-03-03 04:53:00
11:53 PM,30.9,21.0,67,30.25,10.0,Calm,Calm,-,N/A,,Clear,0,2013-03-03 05:53:00